^^
Saratoga-Weather Station Historical Data
Daily Summary for January 18, 2020 Units:  Metric    English   Both
Daily Weekly Monthly Yearly Custom
  High: Low: Average:
Temperature: 8.3 °C 4.9 °C 6.5 °C
Dew Point: 4.6 °C 2.9 °C 3.7 °C
Humidity: 87% 72% 83%
Wind Speed: 19.5km/h 0km/h 5.1km/h
Wind Gust: 27.4km/h - -
Wind- - West
Pressure: 1027.4 hPa 1021.0 hPa -
Precipitation: 0.0 mm    
Historical Graphs
 
 
Tabular Data for January 18, 2020
Time Temperature Dew Point Pressure Wind Wind Speed Wind Gust Humidity Rainfall Rate (Hourly) solar
00:01 6.6 °C 4.4 °C 1022.0 hPa NW 7.9 km/h 16.1 km/h 86% 0.0 mm 0 W/m2
00:06 6.6 °C 4.4 °C 1022.0 hPa NW 4.7 km/h 25.7 km/h 86% 0.0 mm 0 W/m2
00:11 6.6 °C 4.4 °C 1022.0 hPa WSW 6.4 km/h 14.5 km/h 86% 0.0 mm 0 W/m2
00:16 6.6 °C 4.4 °C 1022.0 hPa West 17.7 km/h 24.1 km/h 86% 0.0 mm 0 W/m2
00:21 6.6 °C 4.4 °C 1022.0 hPa WNW 11.1 km/h 14.5 km/h 86% 0.0 mm 0 W/m2
00:26 6.6 °C 4.4 °C 1022.4 hPa NW 4.7 km/h 22.5 km/h 86% 0.0 mm 0 W/m2
00:31 6.6 °C 4.4 °C 1022.4 hPa WNW 3.2 km/h 12.9 km/h 86% 0.0 mm 0 W/m2
00:36 6.6 °C 4.4 °C 1022.4 hPa West 4.7 km/h 6.4 km/h 86% 0.0 mm 0 W/m2
00:42 6.6 °C 4.4 °C 1022.7 hPa West 3.2 km/h 12.9 km/h 86% 0.0 mm 0 W/m2
00:47 6.7 °C 4.5 °C 1022.7 hPa NNW 3.2 km/h 16.1 km/h 86% 0.0 mm 0 W/m2
00:52 6.7 °C 4.5 °C 1022.7 hPa West 11.1 km/h 11.3 km/h 86% 0.0 mm 0 W/m2
00:57 6.7 °C 4.5 °C 1023.0 hPa WSW 7.9 km/h 16.1 km/h 86% 0.0 mm 0 W/m2
01:02 6.7 °C 4.5 °C 1023.0 hPa WNW 3.2 km/h 12.9 km/h 86% 0.0 mm 0 W/m2
01:07 6.6 °C 4.4 °C 1023.0 hPa NW 3.2 km/h 9.7 km/h 86% 0.0 mm 0 W/m2
01:12 6.6 °C 4.4 °C 1023.0 hPa West 1.4 km/h 8 km/h 86% 0.0 mm 0 W/m2
01:17 6.6 °C 4.6 °C 1023.0 hPa WNW 4.7 km/h 12.9 km/h 87% 0.0 mm 0 W/m2
01:22 6.6 °C 4.6 °C 1023.4 hPa NW 4.7 km/h 19.3 km/h 87% 0.0 mm 0 W/m2
01:27 6.6 °C 4.4 °C 1023.0 hPa SW 4.7 km/h 12.9 km/h 86% 0.0 mm 0 W/m2
01:32 6.6 °C 4.4 °C 1023.4 hPa NW 1.4 km/h 14.5 km/h 86% 0.0 mm 0 W/m2
01:37 6.6 °C 4.4 °C 1023.4 hPa WNW 7.9 km/h 14.5 km/h 86% 0.0 mm 0 W/m2
01:42 6.6 °C 4.4 °C 1023.4 hPa NW 3.2 km/h 14.5 km/h 86% 0.0 mm 0 W/m2
01:47 6.5 °C 4.3 °C 1023.4 hPa WNW 11.1 km/h 14.5 km/h 86% 0.0 mm 0 W/m2
01:52 6.5 °C 4.3 °C 1023.4 hPa North 14.3 km/h 16.1 km/h 86% 0.0 mm 0 W/m2
01:57 6.5 °C 4.3 °C 1023.4 hPa West 3.2 km/h 11.3 km/h 86% 0.0 mm 0 W/m2
02:02 6.4 °C 4.2 °C 1023.4 hPa NW 7.9 km/h 16.1 km/h 86% 0.0 mm 0 W/m2
02:07 6.4 °C 4.2 °C 1023.4 hPa WNW 11.1 km/h 19.3 km/h 86% 0.0 mm 0 W/m2
02:12 6.4 °C 4.1 °C 1023.4 hPa WSW 6.4 km/h 16.1 km/h 85% 0.0 mm 0 W/m2
02:17 6.4 °C 4.1 °C 1023.4 hPa WNW 4.7 km/h 11.3 km/h 85% 0.0 mm 0 W/m2
02:22 6.4 °C 4.1 °C 1023.4 hPa WNW 13 km/h 16.1 km/h 85% 0.0 mm 0 W/m2
02:27 6.4 °C 4.1 °C 1023.4 hPa NW 11.1 km/h 24.1 km/h 85% 0.0 mm 0 W/m2
02:33 6.4 °C 4.1 °C 1023.4 hPa West 19.5 km/h 19.3 km/h 85% 0.0 mm 0 W/m2
02:38 6.4 °C 4.1 °C 1023.7 hPa West 17.7 km/h 24.1 km/h 85% 0.0 mm 0 W/m2
02:43 6.3 °C 4 °C 1023.7 hPa West 4.7 km/h 11.3 km/h 85% 0.0 mm 0 W/m2
02:48 6.3 °C 4 °C 1023.7 hPa WNW 3.2 km/h 25.7 km/h 85% 0.0 mm 0 W/m2
02:53 6.3 °C 4 °C 1023.7 hPa West 14.3 km/h 17.7 km/h 85% 0.0 mm 0 W/m2
02:58 6.3 °C 4 °C 1023.7 hPa WNW 7.9 km/h 22.5 km/h 85% 0.0 mm 0 W/m2
03:03 6.2 °C 3.9 °C 1024.0 hPa WSW 7.9 km/h 27.4 km/h 85% 0.0 mm 0 W/m2
03:08 6.2 °C 3.9 °C 1024.0 hPa NW 11.1 km/h 17.7 km/h 85% 0.0 mm 0 W/m2
03:13 6.1 °C 3.8 °C 1024.0 hPa NNW 13 km/h 27.4 km/h 85% 0.0 mm 0 W/m2
03:18 6.1 °C 3.8 °C 1024.0 hPa WNW 3.2 km/h 17.7 km/h 85% 0.0 mm 0 W/m2
03:23 6 °C 3.7 °C 1024.0 hPa WNW 9.7 km/h 20.9 km/h 85% 0.0 mm 0 W/m2
03:28 5.9 °C 3.6 °C 1024.0 hPa NW 13 km/h 16.1 km/h 85% 0.0 mm 0 W/m2
03:33 5.9 °C 3.6 °C 1024.0 hPa WSW 6.4 km/h 16.1 km/h 85% 0.0 mm 0 W/m2
03:38 5.8 °C 3.6 °C 1024.0 hPa West 3.2 km/h 17.7 km/h 86% 0.0 mm 0 W/m2
03:43 5.8 °C 3.6 °C 1024.0 hPa NW 13 km/h 20.9 km/h 86% 0.0 mm 0 W/m2
03:48 5.7 °C 3.5 °C 1024.0 hPa WSW 4.7 km/h 25.7 km/h 86% 0.0 mm 0 W/m2
03:53 5.7 °C 3.5 °C 1024.0 hPa West 4.7 km/h 14.5 km/h 86% 0.0 mm 0 W/m2
03:58 5.6 °C 3.4 °C 1024.0 hPa NW 6.4 km/h 25.7 km/h 86% 0.0 mm 0 W/m2
04:03 5.6 °C 3.4 °C 1024.0 hPa West 3.2 km/h 9.7 km/h 86% 0.0 mm 0 W/m2
04:08 5.6 °C 3.4 °C 1024.4 hPa West 4.7 km/h 22.5 km/h 86% 0.0 mm 0 W/m2
04:13 5.6 °C 3.4 °C 1024.4 hPa NW 13 km/h 12.9 km/h 86% 0.0 mm 0 W/m2
04:18 5.5 °C 3.3 °C 1024.4 hPa West 3.2 km/h 20.9 km/h 86% 0.0 mm 0 W/m2
04:23 5.5 °C 3.3 °C 1024.4 hPa WNW 3.2 km/h 4.8 km/h 86% 0.0 mm 0 W/m2
04:28 5.4 °C 3.2 °C 1024.4 hPa WNW 4.7 km/h 16.1 km/h 86% 0.0 mm 0 W/m2
04:33 5.3 °C 3.1 °C 1024.4 hPa WNW 6.4 km/h 6.4 km/h 86% 0.0 mm 0 W/m2
04:38 5.3 °C 3.3 °C 1024.4 hPa WSW 3.2 km/h 14.5 km/h 87% 0.0 mm 0 W/m2
04:43 5.3 °C 3.3 °C 1024.7 hPa WNW 4.7 km/h 9.7 km/h 87% 0.0 mm 0 W/m2
04:48 5.2 °C 3.2 °C 1024.7 hPa WNW 6.4 km/h 14.5 km/h 87% 0.0 mm 0 W/m2
04:53 5.2 °C 3.2 °C 1024.7 hPa West 1.4 km/h 6.4 km/h 87% 0.0 mm 0 W/m2
04:58 5.2 °C 3.2 °C 1024.7 hPa West 3.2 km/h 16.1 km/h 87% 0.0 mm 0 W/m2
05:03 5.2 °C 3.2 °C 1025.1 hPa NNW 17.7 km/h 17.7 km/h 87% 0.0 mm 0 W/m2
05:08 5.2 °C 3.2 °C 1024.7 hPa WSW 4.7 km/h 4.8 km/h 87% 0.0 mm 0 W/m2
05:13 5.2 °C 3.2 °C 1025.1 hPa West 13 km/h 17.7 km/h 87% 0.0 mm 0 W/m2
05:18 5.2 °C 3.2 °C 1025.1 hPa NW 6.4 km/h 6.4 km/h 87% 0.0 mm 0 W/m2
05:23 5.2 °C 3.2 °C 1025.1 hPa West 6.4 km/h 12.9 km/h 87% 0.0 mm 0 W/m2
05:28 5.2 °C 3.2 °C 1025.1 hPa NNW 6.4 km/h 8 km/h 87% 0.0 mm 0 W/m2
05:33 5.1 °C 3.1 °C 1025.1 hPa WSW 3.2 km/h 12.9 km/h 87% 0.0 mm 0 W/m2
05:38 5.1 °C 3.1 °C 1025.1 hPa West 11.1 km/h 19.3 km/h 87% 0.0 mm 0 W/m2
05:43 5.1 °C 3.1 °C 1025.1 hPa WNW 6.4 km/h 12.9 km/h 87% 0.0 mm 0 W/m2
05:48 5.1 °C 3.1 °C 1025.1 hPa SW 7.9 km/h 11.3 km/h 87% 0.0 mm 0 W/m2
05:53 5.1 °C 3.1 °C 1025.1 hPa NW 6.4 km/h 17.7 km/h 87% 0.0 mm 0 W/m2
05:58 5.1 °C 3.1 °C 1025.1 hPa SW 7.9 km/h 8 km/h 87% 0.0 mm 0 W/m2
06:03 5.1 °C 3.1 °C 1025.1 hPa SW 6.4 km/h 12.9 km/h 87% 0.0 mm 0 W/m2
06:08 5.1 °C 3.1 °C 1025.4 hPa WNW 3.2 km/h 11.3 km/h 87% 0.0 mm 0 W/m2
06:13 5.1 °C 3.1 °C 1025.4 hPa West 9.7 km/h 9.7 km/h 87% 0.0 mm 0 W/m2
06:18 5.1 °C 3.1 °C 1025.4 hPa West 4.7 km/h 6.4 km/h 87% 0.0 mm 0 W/m2
06:23 5.1 °C 3.1 °C 1025.4 hPa WNW 3.2 km/h 11.3 km/h 87% 0.0 mm 0 W/m2
06:28 5.1 °C 3.1 °C 1025.4 hPa West 3.2 km/h 6.4 km/h 87% 0.0 mm 0 W/m2
06:33 5.1 °C 3.1 °C 1025.4 hPa NW 6.4 km/h 11.3 km/h 87% 0.0 mm 0 W/m2
06:38 5.1 °C 3.1 °C 1025.4 hPa Calm   12.9 km/h 87% 0.0 mm 0 W/m2
06:43 5.1 °C 3.1 °C 1025.4 hPa West 4.7 km/h 11.3 km/h 87% 0.0 mm 0 W/m2
06:48 5 °C 3 °C 1025.4 hPa WNW 6.4 km/h 16.1 km/h 87% 0.0 mm 0 W/m2
06:53 5 °C 3 °C 1025.7 hPa West 3.2 km/h 9.7 km/h 87% 0.0 mm 0 W/m2
06:58 5 °C 3 °C 1025.4 hPa West 4.7 km/h 16.1 km/h 87% 0.0 mm 0 W/m2
07:03 5 °C 3 °C 1025.7 hPa WSW 6.4 km/h 14.5 km/h 87% 0.0 mm 0 W/m2
07:08 5 °C 3 °C 1025.7 hPa NW 4.7 km/h 14.5 km/h 87% 0.0 mm 0 W/m2
07:13 5 °C 3 °C 1025.4 hPa WSW 4.7 km/h 9.7 km/h 87% 0.0 mm 0 W/m2
07:18 5 °C 3 °C 1025.7 hPa WNW 6.4 km/h 12.9 km/h 87% 0.0 mm 0 W/m2
07:23 5 °C 3 °C 1025.7 hPa NW 3.2 km/h 6.4 km/h 87% 0.0 mm 0 W/m2
07:28 5 °C 3 °C 1025.7 hPa WSW 1.4 km/h 4.8 km/h 87% 0.0 mm 0 W/m2
07:33 5 °C 3 °C 1025.7 hPa West 1.4 km/h 12.9 km/h 87% 0.0 mm 0 W/m2
07:38 5 °C 3 °C 1025.7 hPa NNW 7.9 km/h 11.3 km/h 87% 0.0 mm 0 W/m2
07:43 5 °C 3 °C 1025.7 hPa WNW 3.2 km/h 20.9 km/h 87% 0.0 mm 0 W/m2
07:48 5 °C 3 °C 1025.7 hPa North 1.4 km/h 11.3 km/h 87% 0.0 mm 0 W/m2
07:53 5 °C 3 °C 1025.7 hPa NNW 1.4 km/h 20.9 km/h 87% 0.0 mm 0 W/m2
07:58 4.9 °C 2.9 °C 1026.1 hPa West 1.4 km/h 6.4 km/h 87% 0.0 mm 5 W/m2
08:03 4.9 °C 2.9 °C 1026.1 hPa WSW 1.4 km/h 9.7 km/h 87% 0.0 mm 5 W/m2
08:08 4.9 °C 2.9 °C 1026.1 hPa WSW 4.7 km/h 9.7 km/h 87% 0.0 mm 9 W/m2
08:13 4.9 °C 2.9 °C 1026.4 hPa WNW 1.4 km/h 3.2 km/h 87% 0.0 mm 11 W/m2
08:19 5 °C 3 °C 1026.4 hPa West 3.2 km/h 6.4 km/h 87% 0.0 mm 11 W/m2
08:24 5 °C 3 °C 1026.4 hPa West 9.7 km/h 20.9 km/h 87% 0.0 mm 12 W/m2
08:29 5 °C 3 °C 1026.4 hPa WSW 11.1 km/h 11.3 km/h 87% 0.0 mm 21 W/m2
08:34 5 °C 3 °C 1026.8 hPa West 3.2 km/h 14.5 km/h 87% 0.0 mm 23 W/m2
08:39 5 °C 3 °C 1026.8 hPa NNW 1.4 km/h 8 km/h 87% 0.0 mm 28 W/m2
08:44 5 °C 2.9 °C 1026.8 hPa NW 1.4 km/h 11.3 km/h 86% 0.0 mm 35 W/m2
08:49 5 °C 2.9 °C 1026.8 hPa WSW 1.4 km/h 12.9 km/h 86% 0.0 mm 25 W/m2
08:54 5 °C 3 °C 1026.8 hPa WSW 1.4 km/h 6.4 km/h 87% 0.0 mm 30 W/m2
08:59 5 °C 2.9 °C 1026.8 hPa NW 3.2 km/h 14.5 km/h 86% 0.0 mm 39 W/m2
09:04 5 °C 3 °C 1026.8 hPa NW 3.2 km/h 8 km/h 87% 0.0 mm 63 W/m2
09:09 5 °C 3 °C 1026.8 hPa NW 3.2 km/h 11.3 km/h 87% 0.0 mm 62 W/m2
09:14 5.1 °C 3.1 °C 1027.1 hPa WNW 1.4 km/h 3.2 km/h 87% 0.0 mm 67 W/m2
09:19 5.1 °C 3 °C 1027.1 hPa West 4.7 km/h 9.7 km/h 86% 0.0 mm 70 W/m2
09:24 5.1 °C 3.1 °C 1026.8 hPa WNW 6.4 km/h 6.4 km/h 87% 0.0 mm 88 W/m2
09:29 5.2 °C 3.1 °C 1027.1 hPa West 13 km/h 12.9 km/h 86% 0.0 mm 58 W/m2
09:34 5.2 °C 3.1 °C 1027.1 hPa WNW 3.2 km/h 14.5 km/h 86% 0.0 mm 54 W/m2
09:39 5.2 °C 3.1 °C 1027.1 hPa WNW 6.4 km/h 6.4 km/h 86% 0.0 mm 72 W/m2
09:44 5.2 °C 3.1 °C 1027.1 hPa WNW 19.5 km/h 19.3 km/h 86% 0.0 mm 62 W/m2
09:49 5.2 °C 3.1 °C 1027.1 hPa Calm   9.7 km/h 86% 0.0 mm 58 W/m2
09:54 5.2 °C 3.1 °C 1027.1 hPa ESE 19.3 km/h 19.3 km/h 86% 0.0 mm 63 W/m2
09:59 5.2 °C 3.1 °C 1027.1 hPa WNW 6.4 km/h 11.3 km/h 86% 0.0 mm 58 W/m2
10:04 5.2 °C 3.1 °C 1027.1 hPa WNW 7.9 km/h 8 km/h 86% 0.0 mm 58 W/m2
10:09 5.3 °C 3.1 °C 1027.1 hPa WNW 6.4 km/h 11.3 km/h 86% 0.0 mm 77 W/m2
10:14 5.3 °C 3.1 °C 1027.1 hPa WSW 3.2 km/h 6.4 km/h 86% 0.0 mm 127 W/m2
10:19 5.3 °C 3.1 °C 1027.1 hPa West 1.4 km/h 12.9 km/h 86% 0.0 mm 130 W/m2
10:24 5.4 °C 3.2 °C 1027.1 hPa SW 14.3 km/h 14.5 km/h 86% 0.0 mm 109 W/m2
10:29 5.4 °C 3.2 °C 1027.4 hPa WSW 1.4 km/h 16.1 km/h 86% 0.0 mm 104 W/m2
10:34 5.4 °C 3.1 °C 1027.4 hPa West 6.4 km/h 16.1 km/h 85% 0.0 mm 113 W/m2
10:39 5.4 °C 3.2 °C 1027.4 hPa WNW 3.2 km/h 11.3 km/h 86% 0.0 mm 156 W/m2
10:44 5.6 °C 3.4 °C 1027.1 hPa ESE 3.2 km/h 16.1 km/h 86% 0.0 mm 204 W/m2
10:49 5.7 °C 3.5 °C 1027.4 hPa SE 3.2 km/h 16.1 km/h 86% 0.0 mm 148 W/m2
10:54 5.7 °C 3.4 °C 1027.4 hPa WNW 13 km/h 14.5 km/h 85% 0.0 mm 206 W/m2
10:59 5.8 °C 3.5 °C 1027.1 hPa West 3.2 km/h 8 km/h 85% 0.0 mm 276 W/m2
11:04 5.9 °C 3.6 °C 1027.1 hPa West 1.4 km/h 6.4 km/h 85% 0.0 mm 188 W/m2
11:09 6.1 °C 3.6 °C 1027.1 hPa West 4.7 km/h 11.3 km/h 84% 0.0 mm 197 W/m2
11:15 6.2 °C 3.5 °C 1027.1 hPa NNW 3.2 km/h 11.3 km/h 83% 0.0 mm 181 W/m2
11:20 6.2 °C 3.5 °C 1027.1 hPa WNW 3.2 km/h 12.9 km/h 83% 0.0 mm 146 W/m2
11:25 6.2 °C 3.5 °C 1027.1 hPa NNW 3.2 km/h 14.5 km/h 83% 0.0 mm 162 W/m2
11:30 6.2 °C 3.5 °C 1027.1 hPa North 1.4 km/h 11.3 km/h 83% 0.0 mm 239 W/m2
11:35 6.3 °C 3.6 °C 1027.1 hPa NNW 4.7 km/h 11.3 km/h 83% 0.0 mm 262 W/m2
11:40 6.4 °C 3.7 °C 1027.1 hPa NNW 3.2 km/h 6.4 km/h 83% 0.0 mm 216 W/m2
11:45 6.6 °C 3.7 °C 1027.4 hPa NE 6.4 km/h 11.3 km/h 82% 0.0 mm 135 W/m2
11:50 6.7 °C 3.7 °C 1027.1 hPa WNW 4.7 km/h 9.7 km/h 81% 0.0 mm 364 W/m2
11:55 6.8 °C 3.8 °C 1027.1 hPa ENE 6.4 km/h 12.9 km/h 81% 0.0 mm 211 W/m2
12:00 6.9 °C 3.9 °C 1027.1 hPa North 3.2 km/h 6.4 km/h 81% 0.0 mm 218 W/m2
12:05 7.1 °C 3.9 °C 1026.8 hPa NW 7.9 km/h 8 km/h 80% 0.0 mm 279 W/m2
12:10 7.1 °C 3.7 °C 1026.8 hPa West 11.1 km/h 11.3 km/h 79% 0.0 mm 120 W/m2
12:15 7.1 °C 3.9 °C 1026.8 hPa NW 7.9 km/h 14.5 km/h 80% 0.0 mm 120 W/m2
12:20 7.1 °C 3.7 °C 1026.8 hPa NW 7.9 km/h 20.9 km/h 79% 0.0 mm 195 W/m2
12:25 6.9 °C 3.5 °C 1026.8 hPa WNW 6.4 km/h 19.3 km/h 79% 0.0 mm 178 W/m2
12:30 6.9 °C 3.5 °C 1026.8 hPa NW 9.7 km/h 16.1 km/h 79% 0.0 mm 169 W/m2
12:35 6.9 °C 3.5 °C 1026.8 hPa West 4.7 km/h 17.7 km/h 79% 0.0 mm 230 W/m2
12:40 7 °C 3.6 °C 1026.8 hPa SW 3.2 km/h 9.7 km/h 79% 0.0 mm 216 W/m2
12:45 7.2 °C 3.6 °C 1026.8 hPa WNW 11.1 km/h 17.7 km/h 78% 0.0 mm 213 W/m2
12:50 7.3 °C 3.9 °C 1026.4 hPa NW 4.7 km/h 9.7 km/h 79% 0.0 mm 216 W/m2
12:55 7.4 °C 3.8 °C 1026.4 hPa West 6.4 km/h 17.7 km/h 78% 0.0 mm 190 W/m2
13:00 7.4 °C 3.6 °C 1026.4 hPa WNW 4.7 km/h 12.9 km/h 77% 0.0 mm 91 W/m2
13:05 7.4 °C 3.6 °C 1026.4 hPa WNW 4.7 km/h 12.9 km/h 77% 0.0 mm 171 W/m2
13:10 7.4 °C 3.8 °C 1026.4 hPa West 1.4 km/h 12.9 km/h 78% 0.0 mm 195 W/m2
13:15 7.4 °C 3.8 °C 1026.4 hPa West 11.1 km/h 16.1 km/h 78% 0.0 mm 158 W/m2
13:20 7.4 °C 3.6 °C 1026.4 hPa NW 7.9 km/h 19.3 km/h 77% 0.0 mm 139 W/m2
13:25 7.4 °C 3.8 °C 1026.4 hPa NNW 4.7 km/h 9.7 km/h 78% 0.0 mm 134 W/m2
13:30 7.4 °C 3.8 °C 1026.4 hPa SE 1.4 km/h 14.5 km/h 78% 0.0 mm 176 W/m2
13:35 7.6 °C 4 °C 1026.1 hPa WNW 4.7 km/h 6.4 km/h 78% 0.0 mm 190 W/m2
13:40 7.7 °C 3.9 °C 1026.1 hPa South 1.4 km/h 14.5 km/h 77% 0.0 mm 179 W/m2
13:45 7.8 °C 4 °C 1026.1 hPa West 11.1 km/h 11.3 km/h 77% 0.0 mm 264 W/m2
13:50 7.9 °C 3.6 °C 1025.7 hPa West 16.3 km/h 16.1 km/h 74% 0.0 mm 167 W/m2
13:55 7.9 °C 3.4 °C 1025.7 hPa West 3.2 km/h 12.9 km/h 73% 0.0 mm 236 W/m2
14:00 8 °C 3.3 °C 1025.7 hPa WNW 6.4 km/h 8 km/h 72% 0.0 mm 151 W/m2
14:05 8 °C 3.3 °C 1025.7 hPa NNE 1.4 km/h 6.4 km/h 72% 0.0 mm 179 W/m2
14:11 8.1 °C 3.4 °C 1025.7 hPa NNE 4.7 km/h 12.9 km/h 72% 0.0 mm 227 W/m2
14:16 8.1 °C 3.6 °C 1025.7 hPa NW 7.9 km/h 11.3 km/h 73% 0.0 mm 171 W/m2
14:21 8.2 °C 3.5 °C 1025.4 hPa NW 16.3 km/h 17.7 km/h 72% 0.0 mm 148 W/m2
14:26 8.2 °C 3.6 °C 1025.4 hPa NNE 1.4 km/h 12.9 km/h 73% 0.0 mm 116 W/m2
14:31 8.2 °C 3.5 °C 1025.4 hPa WNW 3.2 km/h 19.3 km/h 72% 0.0 mm 146 W/m2
14:36 8.1 °C 3.6 °C 1025.4 hPa NW 3.2 km/h 11.3 km/h 73% 0.0 mm 135 W/m2
14:41 8.1 °C 3.6 °C 1025.4 hPa WSW 1.4 km/h 17.7 km/h 73% 0.0 mm 104 W/m2
14:46 8 °C 3.5 °C 1025.4 hPa SW 1.4 km/h 16.1 km/h 73% 0.0 mm 44 W/m2
14:51 8 °C 3.5 °C 1025.4 hPa Calm   6.4 km/h 73% 0.0 mm 83 W/m2
14:56 7.9 °C 3.6 °C 1025.4 hPa SW 1.4 km/h 14.5 km/h 74% 0.0 mm 60 W/m2
15:01 7.9 °C 3.6 °C 1025.1 hPa WSW 6.4 km/h 9.7 km/h 74% 0.0 mm 84 W/m2
15:06 7.9 °C 3.6 °C 1025.1 hPa South 11.1 km/h 12.9 km/h 74% 0.0 mm 130 W/m2
15:11 8 °C 3.6 °C 1025.1 hPa WNW 13 km/h 12.9 km/h 74% 0.0 mm 91 W/m2
15:16 8.1 °C 3.7 °C 1025.1 hPa South 3.2 km/h 6.4 km/h 74% 0.0 mm 70 W/m2
15:21 8.1 °C 3.6 °C 1025.1 hPa NW 3.2 km/h 9.7 km/h 73% 0.0 mm 70 W/m2
15:26 8.1 °C 3.7 °C 1025.1 hPa West 3.2 km/h 12.9 km/h 74% 0.0 mm 49 W/m2
15:31 8.2 °C 3.8 °C 1025.1 hPa South 1.4 km/h 9.7 km/h 74% 0.0 mm 95 W/m2
15:36 8.2 °C 3.8 °C 1025.1 hPa NNW 1.4 km/h 9.7 km/h 74% 0.0 mm 65 W/m2
15:41 8.2 °C 3.8 °C 1025.1 hPa SSW 7.9 km/h 16.1 km/h 74% 0.0 mm 70 W/m2
15:46 8.2 °C 3.6 °C 1025.1 hPa NW 4.7 km/h 12.9 km/h 73% 0.0 mm 84 W/m2
15:51 8.3 °C 3.7 °C 1025.1 hPa West 9.7 km/h 11.3 km/h 73% 0.0 mm 63 W/m2
15:56 8.3 °C 3.7 °C 1025.1 hPa Calm   8 km/h 73% 0.0 mm 70 W/m2
16:01 8.3 °C 3.7 °C 1025.1 hPa North 1.4 km/h 4.8 km/h 73% 0.0 mm 54 W/m2
16:06 8.3 °C 3.7 °C 1025.1 hPa SW 4.7 km/h 6.4 km/h 73% 0.0 mm 58 W/m2
16:11 8.3 °C 3.7 °C 1025.1 hPa West 3.2 km/h 6.4 km/h 73% 0.0 mm 51 W/m2
16:16 8.3 °C 3.7 °C 1025.1 hPa West 6.4 km/h 6.4 km/h 73% 0.0 mm 60 W/m2
16:22 8.3 °C 3.9 °C 1024.7 hPa Calm   3.2 km/h 74% 0.0 mm 54 W/m2
16:27 8.3 °C 3.9 °C 1024.7 hPa WNW 4.7 km/h 19.3 km/h 74% 0.0 mm 37 W/m2
16:32 8.3 °C 3.9 °C 1024.7 hPa North 3.2 km/h 4.8 km/h 74% 0.0 mm 33 W/m2
16:37 8.3 °C 3.9 °C 1024.7 hPa West 4.7 km/h 8 km/h 74% 0.0 mm 32 W/m2
16:42 8.3 °C 3.9 °C 1024.7 hPa WNW 1.4 km/h 12.9 km/h 74% 0.0 mm 35 W/m2
16:47 8.2 °C 3.8 °C 1024.7 hPa WSW 1.4 km/h 6.4 km/h 74% 0.0 mm 25 W/m2
16:52 8.2 °C 3.8 °C 1024.7 hPa SSW 6.4 km/h 8 km/h 74% 0.0 mm 26 W/m2
16:57 8.2 °C 3.8 °C 1024.7 hPa WNW 6.4 km/h 8 km/h 74% 0.0 mm 35 W/m2
17:02 8.2 °C 3.8 °C 1024.7 hPa ENE 3.2 km/h 8 km/h 74% 0.0 mm 26 W/m2
17:07 8.2 °C 3.8 °C 1024.7 hPa West 1.4 km/h 19.3 km/h 74% 0.0 mm 25 W/m2
17:12 8.2 °C 4 °C 1024.7 hPa NNW 4.7 km/h 6.4 km/h 75% 0.0 mm 19 W/m2
17:18 8.1 °C 4.1 °C 1024.7 hPa West 3.2 km/h 12.9 km/h 76% 0.0 mm 28 W/m2
17:23 8 °C 4 °C 1024.7 hPa SSW 6.4 km/h 14.5 km/h 76% 0.0 mm 14 W/m2
17:28 7.9 °C 3.9 °C 1024.7 hPa NW 1.4 km/h 11.3 km/h 76% 0.0 mm 14 W/m2
17:33 7.9 °C 3.9 °C 1024.7 hPa WNW 4.7 km/h 14.5 km/h 76% 0.0 mm 16 W/m2
17:38 7.8 °C 3.8 °C 1024.7 hPa WNW 6.4 km/h 8 km/h 76% 0.0 mm 11 W/m2
17:43 7.7 °C 3.7 °C 1024.4 hPa West 9.7 km/h 9.7 km/h 76% 0.0 mm 9 W/m2
17:48 7.7 °C 3.9 °C 1024.7 hPa SSW 7.9 km/h 14.5 km/h 77% 0.0 mm 5 W/m2
17:53 7.6 °C 3.8 °C 1024.7 hPa WNW 4.7 km/h 9.7 km/h 77% 0.0 mm 0 W/m2
17:58 7.6 °C 4 °C 1024.7 hPa West 1.4 km/h 14.5 km/h 78% 0.0 mm 0 W/m2
18:03 7.6 °C 4.2 °C 1024.7 hPa West 3.2 km/h 6.4 km/h 79% 0.0 mm 0 W/m2
18:08 7.4 °C 4.2 °C 1024.7 hPa North 4.7 km/h 4.8 km/h 80% 0.0 mm 0 W/m2
18:13 7.3 °C 4.1 °C 1024.7 hPa Calm   3.2 km/h 80% 0.0 mm 0 W/m2
18:18 7.3 °C 4.3 °C 1024.4 hPa NE 6.4 km/h 6.4 km/h 81% 0.0 mm 0 W/m2
18:23 7.2 °C 4.2 °C 1024.4 hPa West 3.2 km/h 12.9 km/h 81% 0.0 mm 0 W/m2
18:28 7.2 °C 4.2 °C 1024.4 hPa East 1.4 km/h 4.8 km/h 81% 0.0 mm 0 W/m2
18:33 7.2 °C 4.2 °C 1024.7 hPa West 1.4 km/h 12.9 km/h 81% 0.0 mm 0 W/m2
18:38 7.2 °C 4.2 °C 1024.4 hPa Calm   1.6 km/h 81% 0.0 mm 0 W/m2
18:43 7.2 °C 4.2 °C 1024.4 hPa ESE 3.2 km/h 3.2 km/h 81% 0.0 mm 0 W/m2
18:48 7.1 °C 4.1 °C 1024.4 hPa Calm   1.6 km/h 81% 0.0 mm 0 W/m2
18:53 7.1 °C 4.2 °C 1024.4 hPa NW 4.7 km/h 6.4 km/h 82% 0.0 mm 0 W/m2
18:58 7.1 °C 4.2 °C 1024.4 hPa North 1.4 km/h 3.2 km/h 82% 0.0 mm 0 W/m2
19:03 7.1 °C 4.2 °C 1024.0 hPa NE 3.2 km/h 3.2 km/h 82% 0.0 mm 0 W/m2
19:08 7.1 °C 4.2 °C 1024.0 hPa NNW 3.2 km/h 4.8 km/h 82% 0.0 mm 0 W/m2
19:13 7 °C 4.1 °C 1024.0 hPa Calm   6.4 km/h 82% 0.0 mm 0 W/m2
19:18 7.1 °C 4.2 °C 1024.0 hPa Calm   12.9 km/h 82% 0.0 mm 0 W/m2
19:23 7.1 °C 4.2 °C 1024.0 hPa NW 3.2 km/h 6.4 km/h 82% 0.0 mm 0 W/m2
19:28 7.1 °C 4.2 °C 1024.0 hPa North 1.4 km/h 12.9 km/h 82% 0.0 mm 0 W/m2
19:33 7.1 °C 4.2 °C 1024.0 hPa NNE 1.4 km/h 4.8 km/h 82% 0.0 mm 0 W/m2
19:38 7.1 °C 4.2 °C 1024.0 hPa WNW 4.7 km/h 8 km/h 82% 0.0 mm 0 W/m2
19:43 7.1 °C 4.2 °C 1024.0 hPa West 1.4 km/h 3.2 km/h 82% 0.0 mm 0 W/m2
19:48 7.1 °C 4.2 °C 1024.0 hPa NE 3.2 km/h 6.4 km/h 82% 0.0 mm 0 W/m2
19:53 7.1 °C 4.2 °C 1024.0 hPa NW 3.2 km/h 6.4 km/h 82% 0.0 mm 0 W/m2
19:58 7.1 °C 4.2 °C 1024.0 hPa NW 1.4 km/h 3.2 km/h 82% 0.0 mm 0 W/m2
20:03 7.2 °C 4.2 °C 1024.0 hPa NNE 3.2 km/h 3.2 km/h 81% 0.0 mm 0 W/m2
20:08 7.2 °C 4.2 °C 1024.0 hPa North 3.2 km/h 6.4 km/h 81% 0.0 mm 0 W/m2
20:13 7.2 °C 4.2 °C 1023.7 hPa NW 1.4 km/h 4.8 km/h 81% 0.0 mm 0 W/m2
20:18 7.2 °C 4.2 °C 1024.0 hPa NNW 3.2 km/h 4.8 km/h 81% 0.0 mm 0 W/m2
20:23 7.2 °C 4.2 °C 1023.7 hPa West 9.7 km/h 12.9 km/h 81% 0.0 mm 0 W/m2
20:28 7.2 °C 4.2 °C 1023.7 hPa NW 3.2 km/h 6.4 km/h 81% 0.0 mm 0 W/m2
20:33 7.2 °C 4.2 °C 1024.0 hPa NNW 3.2 km/h 3.2 km/h 81% 0.0 mm 0 W/m2
20:38 7.2 °C 4.2 °C 1023.7 hPa WSW 3.2 km/h 8 km/h 81% 0.0 mm 0 W/m2
20:43 7.2 °C 4.2 °C 1023.7 hPa West 6.4 km/h 9.7 km/h 81% 0.0 mm 0 W/m2
20:48 7.1 °C 4.1 °C 1023.7 hPa SSE 1.4 km/h 6.4 km/h 81% 0.0 mm 0 W/m2
20:53 7.1 °C 4.1 °C 1023.7 hPa Calm   6.4 km/h 81% 0.0 mm 0 W/m2
20:58 7 °C 4 °C 1023.7 hPa NW 4.7 km/h 8 km/h 81% 0.0 mm 0 W/m2
21:03 7 °C 4.1 °C 1023.7 hPa NW 6.4 km/h 8 km/h 82% 0.0 mm 0 W/m2
21:08 6.9 °C 4 °C 1023.7 hPa NW 6.4 km/h 9.7 km/h 82% 0.0 mm 0 W/m2
21:13 6.9 °C 4 °C 1023.4 hPa Calm   4.8 km/h 82% 0.0 mm 0 W/m2
21:18 6.8 °C 3.9 °C 1023.4 hPa NW 6.4 km/h 6.4 km/h 82% 0.0 mm 0 W/m2
21:23 6.8 °C 3.9 °C 1023.4 hPa WNW 4.7 km/h 9.7 km/h 82% 0.0 mm 0 W/m2
21:28 6.8 °C 4.1 °C 1023.4 hPa West 4.7 km/h 9.7 km/h 83% 0.0 mm 0 W/m2
21:33 6.8 °C 4.1 °C 1023.4 hPa ENE 4.7 km/h 6.4 km/h 83% 0.0 mm 0 W/m2
21:38 6.7 °C 4 °C 1023.4 hPa WNW 3.2 km/h 4.8 km/h 83% 0.0 mm 0 W/m2
21:43 6.7 °C 4 °C 1023.4 hPa West 3.2 km/h 6.4 km/h 83% 0.0 mm 0 W/m2
21:48 6.6 °C 3.9 °C 1023.0 hPa West 3.2 km/h 8 km/h 83% 0.0 mm 0 W/m2
21:53 6.6 °C 4.1 °C 1023.0 hPa WNW 4.7 km/h 6.4 km/h 84% 0.0 mm 0 W/m2
21:58 6.5 °C 4 °C 1023.0 hPa NE 4.7 km/h 4.8 km/h 84% 0.0 mm 0 W/m2
22:03 6.4 °C 3.9 °C 1023.0 hPa Calm   3.2 km/h 84% 0.0 mm 0 W/m2
22:09 6.4 °C 3.9 °C 1023.0 hPa West 1.4 km/h 12.9 km/h 84% 0.0 mm 0 W/m2
22:14 6.3 °C 3.8 °C 1022.7 hPa West 4.7 km/h 6.4 km/h 84% 0.0 mm 0 W/m2
22:19 6.3 °C 4 °C 1022.7 hPa NW 4.7 km/h 12.9 km/h 85% 0.0 mm 0 W/m2
22:24 6.3 °C 4 °C 1022.7 hPa NW 1.4 km/h 4.8 km/h 85% 0.0 mm 0 W/m2
22:29 6.2 °C 3.9 °C 1022.7 hPa North 1.4 km/h 1.6 km/h 85% 0.0 mm 0 W/m2
22:34 6.2 °C 3.9 °C 1022.7 hPa Calm   3.2 km/h 85% 0.0 mm 0 W/m2
22:39 6.2 °C 3.9 °C 1022.4 hPa North 1.4 km/h 6.4 km/h 85% 0.0 mm 0 W/m2
22:44 6.1 °C 3.8 °C 1022.4 hPa NNW 1.4 km/h 3.2 km/h 85% 0.0 mm 0 W/m2
22:49 6.1 °C 3.8 °C 1022.4 hPa North 4.7 km/h 6.4 km/h 85% 0.0 mm 0 W/m2
22:54 6.1 °C 3.9 °C 1022.4 hPa WNW 7.9 km/h 16.1 km/h 86% 0.0 mm 0 W/m2
22:59 6.2 °C 4 °C 1022.4 hPa NNW 6.4 km/h 6.4 km/h 86% 0.0 mm 0 W/m2
23:04 6.2 °C 3.9 °C 1022.0 hPa West 4.7 km/h 12.9 km/h 85% 0.0 mm 0 W/m2
23:09 6.1 °C 3.8 °C 1022.0 hPa NE 3.2 km/h 14.5 km/h 85% 0.0 mm 0 W/m2
23:14 6.1 °C 3.9 °C 1022.0 hPa NNW 6.4 km/h 8 km/h 86% 0.0 mm 0 W/m2
23:19 6.1 °C 3.9 °C 1021.7 hPa SW 4.7 km/h 11.3 km/h 86% 0.0 mm 0 W/m2
23:24 6.1 °C 3.9 °C 1021.7 hPa West 1.4 km/h 11.3 km/h 86% 0.0 mm 0 W/m2
23:29 6.1 °C 3.9 °C 1021.7 hPa West 4.7 km/h 11.3 km/h 86% 0.0 mm 0 W/m2
23:34 6.1 °C 3.9 °C 1021.7 hPa ESE 3.2 km/h 11.3 km/h 86% 0.0 mm 0 W/m2
23:39 6.1 °C 3.9 °C 1021.3 hPa NW 4.7 km/h 8 km/h 86% 0.0 mm 0 W/m2
23:44 6.2 °C 4 °C 1021.3 hPa NNW 6.4 km/h 6.4 km/h 86% 0.0 mm 0 W/m2
23:49 6.2 °C 4 °C 1021.3 hPa NW 6.4 km/h 8 km/h 86% 0.0 mm 0 W/m2
23:54 6.2 °C 4.2 °C 1021.0 hPa WNW 6.4 km/h 12.9 km/h 87% 0.0 mm 0 W/m2
23:59 6.2 °C 4.2 °C 1021.0 hPa East 3.2 km/h 6.4 km/h 87% 0.0 mm 0 W/m2
Juneau County Weather
Compliments of Weather Underground - 4 mb